Location: Lecco
(45.8566°N, 9.3977°E)
Time: 13:08:35
(UTC+02:00)

Explorer 11/Cluster Stage 4 - Pass Details

Date: 15 August 2020
Orbit: 467 x 1258 km, 28.8° (Epoch: 24 September)

Event Time Altitude Azimuth Distance (km) Brightness Sun altitude
Rises 21:52:48 0° 224° (SW) 3,853 10.2 -13.4°
Reaches altitude 10° 21:56:21 10° 208° (SSW) 3,017 9.5 -13.9°
Maximum altitude 22:01:22 19° 166° (SSE) 2,525 8.7 -14.6°
Enters shadow 22:03:15 18° 149° (SSE) 2,645 8.7 -14.9°
Drops below altitude 10° 22:06:40 10° 126° (SE) 3,218 - -15.4°
Sets 22:10:36 0° 110° (ESE) 4,198 - -15.9°
